AO-07 1 07530U 74089B 14352.50453580 -.00000038 00000-0 32594-4 0 1461 2 07530 101.4973 328.4226 0011701 296.5052 220.3786 12.53610504834615 FO-29 1 24278U 96046B 14351.48724718 -.00000009 00000-0 25762-4 0 5401 2 24278 098.5192 340.0686 0350661 181.8825 349.6767 13.53039414905458 SO-33 1 25509U 98061B 14351.71125005 .00000548 00000-0 93935-4 0 9035 2 25509 031.4316 200.3627 0348869 282.4875 137.3485 14.29775935843430 RS-22 1 27939U 03042A 14352.80297932 .00002283 00000-0 42807-3 0 1412 2 27939 097.8209 157.9809 0012362 240.3078 119.6909 14.65629177599763 HO-68 1 36122U 09072B 14352.72930526 -.00000060 00000-0 -43517-4 0 2211 2 36122 100.2240 038.7637 0007872 173.6641 186.4575 13.16321641240719 AO-73 1 39444U 13066AE 14352.14896095 .00002587 00000-0 34418-3 0 3345 2 39444 097.7563 056.4311 0060896 006.7637 353.4382 14.79270539 56647 EO-79 1 40025U 14033R 14352.70767696 .00004747 00000-0 54631-3 0 5377 2 40025 097.9668 247.6465 0014390 057.2293 303.0330 14.86156367 26981 UO-11 1 14781U 84021B 14351.77673808 .00001514 00000-0 19724-3 0 6912 2 14781 097.8294 048.1110 0007359 307.9882 052.0666 14.82007543655159 AO-16 1 20439U 90005D 14351.80823955 .00000324 00000-0 13556-3 0 1967 2 20439 098.5258 285.8314 0010275 342.5026 043.3380 14.32453606300777 LO-19 1 20442U 90005G 14352.39219154 .00000331 00000-0 13750-3 0 1308 2 20442 098.4969 286.5067 0010970 328.0801 031.9718 14.32651512301050 AO-27 1 22825U 93061C 14352.53705075 .00000275 00000-0 12424-3 0 8455 2 22825 098.6868 297.8383 0009551 115.8148 013.7027 14.29803784107121 IO-26 1 22826U 93061D 14352.39816446 .00000298 00000-0 13240-3 0 6028 2 22826 098.6810 297.8913 0010098 109.3561 250.8713 14.30112491107242 GO-32 1 25397U 98043D 14352.19459990 .00000068 00000-0 48417-4 0 5236 2 25397 098.4966 303.5569 0002348 119.0376 000.1903 14.23497589854041 NO-44 1 26931U 01043C 14352.38891166 .00000199 00000-0 10850-3 0 7776 2 26931 067.0527 283.4270 0007289 269.7194 090.3072 14.30220122689944 SO-50 1 27607U 02058C 14352.83515616 .00002379 00000-0 34470-3 0 6064 2 27607 064.5572 029.3015 0068697 324.5807 035.1236 14.74251875644691 CO-55 1 27844U 03031E 14352.68051235 .00000517 00000-0 25531-3 0 956 2 27844 098.6969 358.7943 0010791 102.8878 320.0308 14.21657292594794 CO-57 1 27848U 03031J 14352.53321247 .00000443 00000-0 22314-3 0 355 2 27848 098.7065 358.4608 0010709 109.5556 042.7339 14.21324397594684 AO-51 1 28375U 04025K 14352.43464527 .00000393 00000-0 12891-3 0 176 2 28375 098.2743 293.2800 0083680 154.8976 205.6317 14.41530765550458 CP3 1 31129U 07012N 14351.52879248 .00001545 00000-0 34460-3 0 9259 2 31129 097.9576 320.4961 0098168 159.0622 340.6116 14.55255608406690 CO-65 1 32785U 08021C 14352.38935586 .00002048 00000-0 23956-3 0 1431 2 32785 097.6760 037.4495 0012377 306.1575 175.9871 14.86081983359374 PRISM 1 33493U 09002B 14352.73723703 .00008514 00000-0 85774-3 0 5909 2 33493 098.2521 176.5253 0016956 199.3028 160.7608 14.91313634319667 SOHLA-1 1 33496U 09002E 14352.39621220 .00001060 00000-0 18064-3 0 5407 2 33496 098.1901 114.0492 0006529 029.7410 006.4380 14.71090362316599 TISAT-1 1 36799U 10035E 14352.23476155 .00004031 00000-0 45495-3 0 7863 2 36799 098.0178 085.7410 0014437 082.0285 330.2717 14.87056309240055 STUDSAT 1 36801U 10035G 14351.78582480 .00030907 00000-0 22801-2 0 9571 2 36801 098.0546 097.6007 0006678 042.3645 108.7076 15.03200417240639 ALMASAT-1 1 38078U 12006B 14352.39534811 .00042799 00000-0 81716-3 0 2387 2 38078 069.4627 331.1864 0536858 145.7248 217.9852 14.63825140148443 XATCOBEO 1 38082U 12006F 14243.34478676 .13583328 43697-5 37939-3 0 5637 2 38082 069.3815 097.0364 0033293 225.1799 135.4582 16.41261006136239 CUBEBUG-1 1 39153U 13018D 14352.50210464 .00003893 00000-0 53918-3 0 7283 2 39153 098.0319 072.3818 0018839 115.6483 244.6676 14.78470825 88770 ESTCUBE-1 1 39161U 13021C 14352.72779351 .00002493 00000-0 41818-3 0 7657 2 39161 098.0870 072.2030 0010256 163.7842 196.3731 14.70580613 86710 DUCHIFAT-1 1 40021U 14033M 14352.68094073 .00005757 00000-0 65397-3 0 5409 2 40021 097.9697 247.7213 0015449 058.3614 301.9148 14.86592201 26970 NANOSATCBR1 1 40024U 14033Q 14352.69787476 .00005385 00000-0 61571-3 0 5305 2 40024 097.9665 247.6590 0014757 058.6445 301.6215 14.86362381 26977 DTUSAT-2 1 40030U 14033W 14352.68607237 .00004113 00000-0 47886-3 0 5230 2 40030 097.9662 247.4981 0013766 051.1277 309.1204 14.85763848 26976 ANTELSAT 1 40034U 14033AA 14352.81616792 .00003926 00000-0 61668-3 0 5386 2 40034 097.9627 243.6896 0060758 338.2244 021.6423 14.71928579 26754 MET-2/21 1 22782U 93055A 14352.23967527 .00000043 00000-0 25392-4 0 2512 2 22782 082.5486 027.2640 0023691 108.7400 320.6473 13.83754326 75579 OKEAN-4 1 23317U 94066A 14352.29403392 .00001374 00000-0 15361-3 0 7361 2 23317 082.5398 255.2564 0019499 205.0396 304.9321 14.86114820 90443 NOAA-14 1 23455U 94089A 14352.55821291 .00000053 00000-0 50963-4 0 229 2 23455 098.7670 072.6238 0008874 229.6923 244.3808 14.14010293 30003 NOAA-15 1 25338U 98030A 14352.52785094 .00000292 00000-0 14257-3 0 4581 2 25338 098.7641 346.1448 0010023 338.0375 181.1282 14.25531160863102 RESURS 1 25394U 98043A 14351.90480551 .00000095 00000-0 59202-4 0 8336 2 25394 098.4409 308.7818 0002520 091.8628 280.9061 14.24426827854471 FENGYUN1 1 25730U 99025A 14352.49487517 .00004723 00000-0 25648-2 0 3214 2 25730 098.9285 312.6521 0021226 312.2178 186.0536 14.12689467803533 OKEAN-0 1 25860U 99039A 14351.88650943 .00001445 00000-0 21907-3 0 4438 2 25860 098.0699 314.9579 0001583 120.6190 265.9863 14.75662702829242 NOAA-16 1 26536U 00055A 14352.46715156 .00000032 00000-0 41236-4 0 9582 2 26536 098.9675 053.4115 0010659 029.1466 331.0299 14.13064140734135 NOAA-17 1 27453U 02032A 14352.53720781 .00000178 00000-0 93995-4 0 8495 2 27453 098.3252 342.6433 0011417 359.0796 001.0361 14.24832661648938 NOAA-18 1 28654U 05018A 14352.55178537 .00000147 00000-0 10532-3 0 3715 2 28654 099.1690 335.9489 0015256 106.5916 000.8521 14.12119819493581 NOAA-19 1 33591U 09005A 14352.55213881 .00000454 00000-0 27333-3 0 5027 2 33591 098.9686 297.2304 0013351 322.7478 157.8794 14.11833077302003 HUBBLE 1 20580U 90037B 14352.49090278 .00004930 00000-0 31442-3 0 1814 2 20580 028.4707 264.8553 0003138 095.7232 241.2353 15.06445853152527 ISS 1 25544U 98067A 14352.86399956 .00029740 00000-0 48283-3 0 5884 2 25544 051.6484 263.7528 0007637 144.6912 303.7798 15.52444472919984 CO-58 1 28895U 05043F 14352.51337541 .00002283 00000-0 45979-3 0 9473 2 28895 097.8211 184.7421 0018036 145.2149 215.0237 14.62330950487184 FALCON 1 30776U 07006E 14351.52610558 .00016857 00000-0 76735-3 0 294 2 30776 035.4294 056.2578 0002885 138.5732 348.6461 15.19896871428604 MAST 1 31126U 07012K 14351.50518828 .00001131 00000-0 25433-3 0 2296 2 31126 097.9376 323.0942 0092587 141.9935 006.2258 14.55663048407053 CAPE1 1 31130U 07012P 14351.45747487 .00001440 00000-0 32357-3 0 2342 2 31130 097.9592 319.9498 0098778 160.9550 199.5383 14.54969778406456 COMPASS 1 32787U 08021E 14352.56737015 .00006242 00000-0 66345-3 0 1293 2 32787 097.6788 040.7034 0012096 294.1716 065.8237 14.89287303359610 AAUSAT2 1 32788U 08021F 14352.14102505 .00005664 00000-0 58993-3 0 1150 2 32788 097.6798 041.5163 0011536 292.8858 067.1142 14.90146270359624 DO-64 1 32789U 08021G 14352.13330670 .00011454 00000-0 10132-2 0 1602 2 32789 097.7009 049.9484 0009866 271.7705 147.6019 14.96426509359976 CO-66 1 32791U 08021J 14352.56864353 .00004727 00000-0 52441-3 0 1124 2 32791 097.6780 039.0543 0012901 299.2550 060.7377 14.87657792359452 RS-30 1 32953U 08025A 14352.70567711 .00000010 00000-0 -13620-7 0 5678 2 32953 082.5035 086.4838 0019522 115.3105 245.0005 12.43053835298187 METEOR-M 1 35865U 09049A 14352.72652164 .00000187 00000-0 10403-3 0 1750 2 35865 098.5255 034.3112 0001928 290.7608 069.3362 14.21967609272565 RS-38 1 35869U 09049E 14352.86507090 .00000116 00000-0 71317-4 0 827 2 35869 098.5196 034.1632 0003724 284.6438 075.4323 14.22254979272629 JUGNU 1 37839U 11058B 14351.87165654 .00000504 00000-0 12678-3 0 7557 2 37839 019.9602 221.6218 0018974 208.1684 244.1607 14.12392111164559 SRMSAT 1 37841U 11058D 14352.13070282 .00000420 00000-0 86245-4 0 7595 2 37841 019.9707 243.0779 0011912 143.5222 339.3725 14.10418686164353 RAX-2 1 37853U 11061D 14351.80908970 .00017155 00000-0 11044-2 0 9902 2 37853 101.7026 109.3388 0207453 244.6398 277.4081 14.92452022170013 AUBIESAT 1 37854U 11061E 14352.33550200 .00015914 00000-0 98731-3 0 9899 2 37854 101.7075 112.6889 0204423 239.2046 186.1111 14.94140002170176 HRBE 1 37855U 11061F 14352.54055501 .00020599 00000-0 12956-2 0 101 2 37855 101.7081 112.0392 0206887 240.4243 117.6203 14.93248525170153 RS-39 1 38051U 11062C 14288.65876392 .70201582 12497-4 27925-2 0 413 2 38051 051.5964 324.1908 0006422 269.6897 186.8903 16.43533377153081 E-STAR 1 38079U 12006C 14352.82048736 .00447659 64741-4 17451-2 0 1093 2 38079 069.4272 209.3602 0155614 080.5609 281.3130 15.70521135151691 GOLIAT 1 38085U 12006J 14352.81050537 .00281327 24028-4 16478-2 0 6401 2 38085 069.4321 222.8907 0209021 086.9956 034.3311 15.53475508151340 HORYU-2 1 38340U 12025D 14352.33081835 .00002853 00000-0 44780-3 0 483 2 38340 098.2890 312.9749 0011194 317.0662 042.9670 14.73408208138896 RS-40 1 38735U 12041C 14352.67141013 .00000040 00000-0 21992-3 0 8700 2 38735 082.4748 172.5224 0016600 213.0411 146.9631 12.42565269108493 PROITERES 1 38756U 12047B 14352.89657576 .00001828 00000-0 27680-3 0 5105 2 38756 098.2244 084.2127 0012805 149.8104 210.3848 14.75394250122413 BEESAT-3 1 39134U 13015E 14352.40324541 .00016029 00000-0 10173-2 0 7987 2 39134 064.8754 274.4028 0035659 277.2476 082.4593 15.08517045 91395 BEESAT-2 1 39136U 13015G 14352.56116291 .00013801 00000-0 89136-3 0 7753 2 39136 064.8742 275.0854 0036039 277.5864 082.1660 15.07465607 91404 LO-75 1 39382U 13064C 14295.69194059 .07301741 00000-0 36367-2 0 4875 2 39382 040.4713 030.2705 0002289 341.7175 018.4586 16.19795749470823 ZACUBE-1 1 39417U 13066B 14352.46774046 .00003163 00000-0 42272-3 0 4924 2 39417 097.7562 056.6282 0061342 006.1695 354.0258 14.78908865 57919 TRITON-1 1 39427U 13066M 14351.49447932 .00002490 00000-0 41822-3 0 3424 2 39427 097.7430 047.7486 0117417 027.5084 333.2269 14.66017388 57240 DELFIN3XT 1 39428U 13066N 14352.34370231 .00002938 00000-0 50290-3 0 3478 2 39428 097.7425 047.2442 0126907 028.3433 332.4598 14.64336412 57272 GOMX-1 1 39430U 13066Q 14352.69188749 .00002201 00000-0 41935-3 0 858 2 39430 097.7368 043.6531 0155957 038.3388 322.8779 14.57444689 57088 MO-76 1 39436U 13066W 14352.19088870 .00026222 00000-0 22669-2 0 4386 2 39436 097.7625 063.4677 0022847 358.2240 001.8896 14.96965368 58320 LO-74 1 39440U 13066AA 14352.38367022 .00001732 00000-0 25816-3 0 3398 2 39440 097.7512 053.3939 0083218 012.7141 347.6140 14.73791607 57702 PUCPSAT-1 1 39442U 13066AC 14352.46558541 .00006272 00000-0 69355-3 0 3409 2 39442 097.7629 061.5832 0033732 001.7625 358.3704 14.87313642 56996 SHINAISAT 1 39572U 14009A 14328.13084988 .28848087 76253-5 66603-3 0 4474 2 39572 064.9728 197.0096 0013534 259.7861 100.1802 16.45181032 42403 TEIKYOSAT 1 39576U 14009E 14297.85867254 .09345816 76764-5 25176-3 0 4374 2 39576 064.9818 300.5833 0008491 317.3597 044.3862 16.45008906 37698 CO-77 1 39577U 14009F 14244.78324653 .10543803 76292-5 32273-3 0 3795 2 39577 064.9920 123.7668 0014904 269.7208 091.1897 16.43552757 29380 SPROUT 1 39770U 14029E 14352.75973927 .00002841 00000-0 35396-3 0 2274 2 39770 097.8730 087.1489 0011191 073.0352 287.2105 14.83202601 30883 POPSAT-HIP1 1 40028U 14033U 14352.72761033 .00004725 00000-0 54582-3 0 5596 2 40028 097.9706 247.7045 0015899 054.3660 305.9094 14.85991557 26977 EO-80 1 40032U 14033Y 14352.75645171 .00004284 00000-0 49895-3 0 5421 2 40032 097.9664 247.5766 0013403 052.6555 307.5898 14.85731180 26981 VELOX-1 1 40057U 14034E 14352.86875299 .00004177 00000-0 63016-3 0 5508 2 40057 098.2362 062.9903 0012714 094.6153 265.6535 14.74839487 25295 DAURIA DX 1 1 40071U 14037C 14352.83802684 .00001961 00000-0 26713-3 0 5200 2 40071 098.3828 051.6780 0009834 097.1957 263.0385 14.79916677 24113 UKUBE-1 1 40074U 14037F 14352.79421780 .00004066 00000-0 52948-3 0 5211 2 40074 098.3834 051.9198 0005889 103.5758 256.6147 14.81201491 24125 CHASQUI-1 1 40117U 98067ET 14352.75390115 .00377544 00000-0 18500-2 0 3696 2 40117 051.6399 255.4573 0009768 139.3532 320.4197 15.80595583 19055 HODOYOSHI-1 1 40299U 14070B 14352.79099689 .00007682 00000-0 38556-3 0 1342 2 40299 097.4726 071.6612 0014635 045.9769 071.7273 15.17495158 6439 CHUBUSAT-1 1 40300U 14070C 14352.78460604 .00008957 00000-0 47396-3 0 1363 2 40300 097.4702 071.5078 0024409 043.2772 075.5763 15.15414531 6425 QSAT-EOS 1 40301U 14070D 14352.78875924 .00015405 00000-0 85915-3 0 1454 2 40301 097.4672 071.3352 0035793 041.6344 076.7199 15.13104642 6423 TSUBAME 1 40302U 14070E 14352.96514657 .00010525 00000-0 62402-3 0 1418 2 40302 097.4646 071.3416 0045987 041.2353 319.2343 15.10643410 6433 /EX
